Date,TemperatureHighF,TemperatureAvgF,TemperatureLowF,DewpointHighF,DewpointAvgF,DewpointLowF,HumidityHigh,HumidityAvg,HumidityLow,PressureMaxIn,PressureMinIn,WindSpeedMaxMPH,WindSpeedAvgMPH,GustSpeedMaxMPH,PrecipitationSumIn
2013-1-1,35.1,27.2,20.6,20.0,14.1,10.0,76,59,42,30.32,30.06,13,3,17,0.00
2013-1-2,34.6,23.6,9.9,12.0,8.5,3.0,82,55,27,30.39,30.25,11,2,19,0.00
2013-1-3,35.0,25.8,16.3,15.0,11.9,6.0,73,57,43,30.45,30.33,11,4,24,0.00
2013-1-4,35.3,21.7,10.7,12.0,5.6,1.0,74,52,28,30.48,30.31,5,1,8,0.00
2013-1-5,42.2,26.7,12.7,9.0,4.5,0.0,60,41,21,30.51,30.39,5,1,11,0.00
2013-1-6,43.6,27.8,11.5,11.0,6.9,3.0,72,44,22,30.50,30.19,5,1,9,0.00
2013-1-7,49.5,35.9,27.8,17.0,12.7,9.0,51,40,26,30.19,29.92,7,1,11,0.00
2013-1-8,48.8,34.7,23.3,17.0,12.5,10.0,61,42,21,30.25,29.93,13,4,18,0.00
2013-1-9,52.0,36.1,24.9,14.0,12.5,10.0,56,40,21,30.44,30.13,11,2,14,0.00
2013-1-10,46.6,33.9,21.0,21.0,13.1,9.0,65,44,26,30.13,29.73,9,2,13,0.00
2013-1-11,40.7,32.8,22.2,24.0,4.8,-12.0,62,33,14,29.89,29.59,19,7,30,0.00
2013-1-12,31.2,21.2,12.4,0.0,-5.5,-13.0,49,32,18,30.15,29.90,10,2,19,0.00
2013-1-13,31.4,17.5,7.2,3.0,-3.5,-10.0,60,41,23,30.25,30.10,8,1,12,0.00
2013-1-14,28.7,22.5,14.3,22.0,12.8,4.0,83,67,51,30.22,30.04,16,4,21,0.00
2013-1-15,24.5,15.7,5.5,6.0,0.8,-2.0,80,54,34,30.58,30.22,12,3,17,0.00
2013-1-16,37.6,24.7,11.1,13.0,6.4,-2.0,62,47,33,30.65,30.48,8,2,12,0.00
2013-1-17,51.5,31.1,15.2,16.0,12.6,8.0,75,50,23,30.64,30.45,4,1,6,0.00
2013-1-18,52.2,34.5,20.4,19.0,15.7,13.0,78,50,25,30.45,30.25,3,0,6,0.00
2013-1-19,51.9,34.5,23.4,18.0,15.0,11.0,69,48,20,30.40,30.27,8,1,11,0.00
2013-1-20,54.3,35.9,19.3,16.0,12.1,7.0,68,42,18,30.35,30.18,6,1,13,0.00
2013-1-21,52.7,36.7,19.0,17.0,11.1,4.0,59,37,19,30.33,30.18,8,2,11,0.00
2013-1-22,58.4,39.5,23.0,17.0,12.5,7.0,69,38,15,30.33,30.19,9,1,14,0.00
2013-1-23,59.4,39.4,22.4,14.0,9.0,4.0,60,32,11,30.37,30.23,6,1,8,0.00
2013-1-24,61.8,44.5,26.4,34.0,14.8,7.0,58,33,15,30.30,30.11,9,1,14,0.00
2013-1-25,57.3,47.3,36.0,38.0,33.4,29.0,76,59,48,30.18,30.02,5,1,8,0.00
2013-1-26,56.0,47.1,40.9,49.0,40.1,33.0,89,77,62,30.04,29.74,15,2,25,0.10
2013-1-27,59.5,48.0,40.0,40.0,36.2,31.0,89,66,34,29.86,29.75,16,4,21,0.00
2013-1-28,54.8,44.2,37.0,38.0,31.3,17.0,85,63,34,29.78,29.58,19,6,26,0.00
2013-1-29,36.4,31.6,26.9,21.0,13.0,1.0,70,47,25,30.01,29.61,19,7,32,0.00
2013-1-30,40.7,31.4,21.9,15.0,12.5,6.0,66,48,29,30.27,30.01,22,4,27,0.00
2013-1-31,51.7,36.5,21.1,23.0,18.0,14.0,77,51,24,30.36,30.22,9,2,17,0.00
2013-2-1,55.7,38.8,22.1,22.0,18.6,14.0,79,49,23,30.27,30.14,11,3,16,0.00
2013-2-2,56.0,42.2,29.6,21.0,18.5,15.0,64,41,21,30.33,30.21,8,2,11,0.00
2013-2-3,52.4,41.3,27.9,28.0,19.2,15.0,62,43,23,30.25,29.93,7,1,12,0.00
2013-2-4,57.2,44.7,33.1,28.0,24.2,18.0,76,47,23,30.03,29.88,14,3,18,0.00
2013-2-5,60.6,43.7,29.8,22.0,17.5,12.0,64,38,17,30.02,29.87,5,1,12,0.00
2013-2-6,60.2,44.7,27.3,26.0,19.7,14.0,63,39,26,29.91,29.75,10,3,19,0.00
2013-2-7,57.2,43.8,29.9,25.0,20.2,11.0,71,42,18,30.04,29.89,7,2,16,0.00
2013-2-8,57.2,46.2,33.2,22.0,19.5,15.0,56,36,24,30.01,29.62,22,5,29,0.00
2013-2-9,48.7,37.0,29.6,21.0,12.4,1.0,60,38,19,29.80,29.50,30,8,43,0.00
2013-2-10,43.1,33.6,25.0,21.0,12.7,7.0,67,44,24,29.96,29.81,11,4,18,0.00
2013-2-11,47.2,33.0,20.0,22.0,14.3,2.0,80,51,15,30.04,29.90,13,3,19,0.00
2013-2-12,41.5,32.2,24.0,22.0,11.7,4.0,73,46,22,30.20,29.94,15,5,18,0.00
2013-2-13,48.1,35.2,21.2,17.0,11.9,9.0,60,40,24,30.21,30.04,15,5,23,0.00
2013-2-14,52.0,38.8,23.2,19.0,16.1,13.0,67,42,22,30.14,30.01,16,4,28,0.00
2013-2-17,60.6,51.3,33.2,6.0,1.1,-8.0,29,14,6,30.00,29.63,16,5,23,0.00
2013-2-18,52.0,42.0,30.6,17.0,-5.9,-29.0,46,17,3,30.00,29.73,14,5,24,0.00
2013-2-19,59.8,41.8,23.4,33.0,4.1,-14.0,65,25,8,30.01,29.65,22,6,32,0.00
2013-2-20,49.9,43.1,32.9,34.0,26.5,13.0,78,55,24,29.65,29.34,23,8,34,0.00
2013-2-21,45.3,34.6,26.1,28.0,23.1,19.0,92,66,36,29.87,29.43,13,5,23,0.19
2013-2-22,43.1,34.2,27.6,25.0,20.2,12.0,78,59,29,30.04,29.86,12,4,22,0.00
2013-2-23,48.0,35.4,22.8,19.0,13.2,9.0,65,42,23,30.09,29.70,9,2,14,0.00
2013-2-24,41.8,33.8,27.3,25.0,15.5,3.0,88,50,24,29.88,29.58,19,7,30,0.00
2013-2-25,48.3,35.1,23.4,24.0,12.3,-1.0,87,47,14,30.11,29.88,11,3,22,0.03
2013-2-26,47.5,34.7,22.1,17.0,6.1,-12.0,72,36,11,30.08,29.79,23,6,31,0.00
2013-2-27,46.5,33.1,18.5,10.0,5.1,-1.0,64,34,15,30.30,30.09,9,2,15,0.00
2013-2-28,52.9,38.1,25.9,7.0,2.8,-6.0,39,25,9,30.35,30.20,14,4,19,0.00
2013-3-1,59.2,45.4,32.4,20.0,12.7,5.0,42,27,17,30.34,30.16,10,4,18,0.00
2013-3-2,66.0,48.0,29.9,23.0,20.0,18.0,65,36,16,30.32,30.06,9,2,12,0.00
2013-3-3,68.0,52.5,36.0,22.0,14.6,-8.0,49,27,5,30.06,29.71,15,4,29,0.00
2013-3-4,63.4,54.6,47.3,22.0,18.2,15.0,33,24,16,29.91,29.58,21,5,31,0.00
2013-3-5,61.9,46.3,30.9,21.0,16.6,8.0,63,34,12,30.18,29.91,9,1,12,0.00
2013-3-6,67.2,52.8,42.9,25.0,21.3,17.0,41,30,17,30.07,29.76,13,3,20,0.00
2013-3-7,70.8,54.0,35.7,20.0,17.0,12.0,51,26,12,29.90,29.69,15,3,19,0.00
2013-3-8,61.1,47.6,39.7,43.0,25.5,12.0,89,48,20,29.78,29.57,17,5,27,0.19
2013-3-9,45.2,39.1,33.1,33.0,23.3,15.0,77,55,30,29.92,29.65,19,5,30,0.01
2013-3-10,52.3,41.1,30.6,28.0,22.5,11.0,82,52,24,30.10,29.92,16,3,19,0.00
2013-3-11,62.7,46.8,32.0,21.0,15.6,4.0,58,33,10,30.13,29.89,13,3,18,0.00
2013-3-12,67.3,52.0,33.8,23.0,20.8,19.0,57,32,16,30.09,29.95,12,2,16,0.00
2013-3-13,69.7,53.2,34.6,26.0,21.7,16.0,63,33,15,30.20,30.02,11,2,13,0.00
2013-3-14,75.0,56.5,39.5,22.0,17.4,9.0,46,25,8,30.16,29.98,8,1,9,0.00
2013-3-15,79.4,56.6,37.4,19.0,14.3,3.0,43,22,5,30.01,29.72,10,1,13,0.00
2013-3-16,72.5,59.7,44.0,33.0,19.1,12.0,45,22,11,29.73,29.50,14,4,26,0.00
2013-3-17,68.9,54.9,40.1,33.0,17.3,-26.0,70,33,2,29.65,29.48,17,4,29,0.01
2013-3-18,67.4,52.6,36.4,9.0,4.3,-3.0,30,15,6,29.82,29.66,17,3,21,0.00
2013-3-19,62.7,50.1,39.6,16.0,9.4,2.0,30,20,11,30.03,29.81,14,2,23,0.00
2013-3-20,63.0,50.5,33.3,22.0,16.6,13.0,45,27,16,30.11,29.71,11,2,23,0.00
2013-3-21,71.4,58.9,48.4,31.0,15.1,-9.0,39,22,4,29.71,29.39,22,5,34,0.00
2013-3-22,65.9,51.7,34.4,26.0,12.1,4.0,40,22,10,29.62,29.42,18,4,30,0.00
2013-3-23,49.9,41.2,32.5,26.0,-0.0,-21.0,49,21,6,30.00,29.53,35,9,37,0.00
2013-3-24,53.1,39.0,22.5,-2.0,-8.9,-17.0,24,13,8,30.11,29.87,20,4,24,0.00
2013-3-25,55.5,41.4,25.9,8.0,5.1,-3.0,42,24,14,30.16,29.99,11,3,19,0.00
2013-3-26,65.4,48.6,29.7,11.0,7.9,6.0,40,21,10,30.12,29.82,18,6,25,0.00
2013-3-27,71.6,58.2,44.9,13.0,9.3,2.0,26,16,8,29.91,29.74,11,3,18,0.00
2013-3-28,71.8,60.9,44.9,21.0,13.1,6.0,26,16,8,29.89,29.75,13,2,31,0.00
2013-3-29,73.5,59.5,45.3,22.0,17.7,11.0,38,22,9,29.94,29.78,8,2,14,0.00
2013-3-30,72.9,58.5,40.2,25.0,17.9,13.0,39,22,11,29.95,29.76,12,2,18,0.00
2013-3-31,73.7,61.0,49.2,33.0,26.6,22.0,48,29,16,29.85,29.68,17,3,26,0.00
2013-4-1,74.9,62.2,44.8,25.0,16.0,2.0,41,20,6,29.81,29.57,12,2,17,0.00
2013-4-2,66.3,56.6,44.0,29.0,15.6,7.0,48,21,10,29.76,29.54,10,4,25,0.00
2013-4-3,65.9,52.3,38.6,31.0,25.3,16.0,65,40,15,29.95,29.77,14,2,15,0.00
2013-4-4,72.6,52.9,36.4,28.0,21.5,7.0,60,35,8,30.05,29.89,8,1,12,0.00
2013-4-6,76.8,70.5,60.9,24.0,16.8,9.0,19,13,8,29.71,29.52,12,3,18,0.00
2013-4-7,75.4,65.5,48.3,25.0,16.7,8.0,37,17,8,29.62,29.44,12,4,23,0.00
2013-4-8,76.9,64.4,48.7,27.0,19.3,8.0,35,19,7,29.47,29.05,32,9,41,0.00
2013-4-9,53.7,45.3,39.6,35.0,30.4,24.0,82,58,37,29.70,29.10,22,5,26,0.09
2013-4-10,48.8,41.5,35.3,35.0,26.0,19.0,88,56,37,29.89,29.70,15,4,21,0.03
2013-4-11,65.8,47.8,29.4,29.0,23.0,17.0,71,40,22,29.92,29.69,17,4,24,0.00
2013-4-12,68.5,56.0,41.4,32.0,27.3,21.0,63,36,17,29.75,29.59,15,2,20,0.00
2013-4-13,74.4,59.4,40.2,28.0,21.0,9.0,56,27,9,29.70,29.42,18,4,28,0.00
2013-4-14,77.1,65.5,56.6,24.0,20.3,15.0,26,19,10,29.44,29.28,18,8,29,0.00
2013-4-15,81.4,64.3,46.0,24.0,15.7,3.0,35,18,5,29.48,29.26,21,5,30,0.00
2013-4-16,79.9,65.0,48.5,24.0,12.0,-8.0,30,15,3,29.52,29.31,26,8,36,0.00
2013-4-17,61.8,52.0,40.7,27.0,17.0,4.0,39,26,13,29.78,29.37,21,7,29,0.00
2013-4-18,49.4,41.2,31.8,17.0,4.5,-4.0,39,24,11,30.16,29.79,19,7,30,0.00
2013-4-19,64.3,46.1,26.2,7.0,1.6,-9.0,42,19,6,30.26,29.88,9,1,13,0.00
2013-4-20,68.6,56.0,43.2,19.0,3.3,-10.0,25,12,8,29.89,29.65,24,4,28,0.00
2013-4-21,75.5,57.9,37.0,23.0,15.0,-2.0,47,22,5,29.95,29.74,14,2,19,0.00
2013-4-22,81.6,65.2,44.8,16.0,10.0,-2.0,28,14,4,29.79,29.49,16,5,25,0.00
2013-4-23,69.4,57.9,42.3,29.0,15.3,-25.0,45,22,3,29.85,29.52,15,6,25,0.00
2013-4-24,71.2,50.7,29.8,20.0,15.9,11.0,59,29,11,30.04,29.86,10,2,18,0.00
2013-4-25,76.7,61.6,50.6,29.0,22.3,10.0,35,24,9,29.91,29.57,26,8,38,0.00
2013-4-26,75.7,61.3,44.4,30.0,18.8,-6.0,48,25,4,29.93,29.75,16,3,22,0.00
2013-4-27,77.9,63.1,46.3,30.0,12.1,-16.0,46,20,3,29.97,29.77,12,2,19,0.00
2013-4-28,81.1,63.6,42.8,13.0,0.4,-30.0,22,10,1,29.85,29.59,7,1,15,0.00
2013-4-29,85.8,67.4,45.3,24.0,9.8,4.0,29,12,5,29.68,29.42,16,2,20,0.00
2013-4-30,85.5,70.9,53.6,18.0,10.9,-1.0,23,12,4,29.52,29.36,18,4,23,0.00
2013-5-1,82.8,68.6,47.8,30.0,11.1,-1.0,48,13,4,29.86,29.47,18,5,30,0.00
2013-5-2,62.6,48.8,36.6,29.0,15.7,8.0,52,30,12,30.27,29.87,18,6,28,0.00
2013-5-3,68.8,51.6,34.1,16.0,11.7,3.0,42,23,8,30.27,29.84,13,3,19,0.00
2013-5-4,78.5,61.1,40.6,12.0,6.6,-4.0,30,13,4,29.86,29.61,21,3,28,0.00
2013-5-5,74.9,60.8,48.9,30.0,16.8,5.0,27,18,11,29.86,29.71,31,9,35,0.00
2013-5-6,70.0,62.2,56.6,40.0,24.5,14.0,51,25,17,29.75,29.67,17,6,26,0.00
2013-5-7,77.4,63.3,46.1,36.0,29.2,20.0,63,31,12,29.78,29.57,15,3,37,0.00
2013-5-8,71.3,60.9,47.2,34.0,23.1,11.0,54,27,10,29.76,29.65,16,4,24,0.00
2013-5-9,73.5,61.1,45.0,37.0,23.0,17.0,49,24,13,29.87,29.69,10,2,18,0.00
2013-5-10,68.5,57.9,49.5,44.0,37.4,31.0,74,48,25,30.06,29.82,13,4,23,0.10
2013-5-11,70.7,57.8,45.7,42.0,37.7,25.0,85,52,20,30.11,30.05,11,2,22,0.01
2013-5-12,80.3,62.7,43.5,36.0,32.2,25.0,71,36,13,30.13,29.88,8,1,20,0.00
2013-5-13,84.3,68.0,49.4,32.0,28.3,23.0,49,26,11,30.00,29.78,8,2,14,0.00
2013-5-14,85.6,69.1,54.4,50.0,26.5,13.0,64,24,10,29.82,29.55,13,2,31,0.06
2013-5-15,86.8,71.1,58.2,48.0,37.4,21.0,68,35,10,29.66,29.49,17,2,33,0.05
2013-5-16,86.8,73.4,56.6,26.0,15.6,-6.0,28,14,3,29.66,29.47,14,3,19,0.00
2013-5-17,63.4,63.3,63.3,20.0,19.0,18.0,19,18,17,29.56,29.56,0,0,1,0.00
2013-5-18,78.6,72.1,54.0,29.0,20.4,12.0,27,15,9,29.63,29.44,13,5,25,0.00
2013-5-19,73.8,65.0,56.9,36.0,28.8,16.0,45,27,12,29.63,29.53,18,6,29,0.00
2013-5-20,76.2,63.1,49.2,34.0,25.4,-5.0,50,28,4,29.71,29.53,20,5,28,0.00
2013-5-21,81.4,64.9,46.1,34.0,27.7,17.0,59,29,9,29.79,29.57,12,3,18,0.00
2013-5-22,87.5,71.7,51.1,26.0,16.2,1.0,36,15,4,29.65,29.44,15,3,18,0.00
2013-5-23,91.8,75.9,53.7,50.0,15.9,-2.0,44,13,4,29.63,29.43,16,4,33,0.00
2013-5-24,88.7,75.4,61.9,51.0,30.5,14.0,50,24,7,29.69,29.51,16,4,22,0.00
2013-5-25,91.7,75.6,55.2,40.0,15.4,-4.0,25,12,3,29.73,29.47,14,3,26,0.00
2013-5-26,89.7,74.4,54.1,25.0,7.6,-25.0,31,10,1,29.70,29.49,14,2,22,0.00
2013-5-27,85.2,70.5,54.7,22.0,8.3,-6.0,20,10,3,29.66,29.47,16,2,24,0.00
2013-5-28,70.2,62.5,56.5,25.0,19.1,17.0,26,19,13,29.53,29.50,0,0,8,0.00
2013-5-30,87.7,82.5,74.1,22.0,17.4,11.0,14,9,6,29.50,29.42,16,7,23,0.00
2013-5-31,86.8,76.4,64.1,37.0,23.8,-2.0,35,17,5,29.59,29.44,20,6,26,0.00
2013-6-1,89.3,72.0,49.7,28.0,2.6,-99.9,25,10,1,29.75,29.59,15,2,26,0.00
2013-6-2,88.7,73.5,62.1,54.0,35.6,27.0,48,26,16,29.75,29.47,21,5,44,0.03
2013-6-3,92.0,77.8,62.8,49.0,35.0,3.0,56,28,4,29.63,29.41,15,4,20,0.00
2013-6-4,93.6,79.9,57.1,28.0,14.3,-8.0,27,10,2,29.62,29.44,12,3,19,0.00
2013-6-5,91.2,78.3,66.3,45.0,31.0,14.0,35,19,6,29.58,29.42,25,4,26,0.00
2013-6-6,90.2,73.3,57.7,46.0,38.2,21.0,53,32,9,29.68,29.52,15,4,31,0.00
2013-6-7,92.2,75.7,62.0,50.0,41.7,26.0,64,35,10,29.67,29.41,20,3,31,0.00
2013-6-8,96.0,79.4,59.5,45.0,33.2,17.0,54,25,6,29.54,29.35,18,4,24,0.00
2013-6-9,98.1,82.8,67.9,47.0,41.3,31.0,44,26,11,29.60,29.46,21,4,33,0.00
2013-6-10,101.4,85.9,70.3,47.0,34.6,17.0,42,20,5,29.60,29.41,12,3,33,0.00
2013-6-11,101.5,86.3,67.6,34.0,21.1,3.0,25,11,3,29.61,29.41,13,2,23,0.00
2013-6-12,98.1,82.5,61.4,36.0,19.6,9.0,27,11,4,29.67,29.53,7,1,15,0.00
2013-6-13,98.3,81.6,66.5,50.0,37.2,28.0,40,22,9,29.65,29.46,14,2,28,0.06
2013-6-14,93.6,78.2,67.2,54.0,48.8,40.0,60,37,16,29.60,29.44,26,4,31,0.02
2013-6-15,94.6,78.0,60.1,51.0,40.2,27.0,70,32,10,29.70,29.57,20,3,34,0.00
2013-6-16,93.4,79.4,64.9,44.0,39.4,32.0,46,25,12,29.71,29.57,16,2,34,0.00
2013-6-17,95.4,79.4,63.1,48.0,38.7,28.0,45,26,9,29.73,29.51,11,2,31,0.00
2013-6-18,92.9,78.3,64.4,52.0,45.2,34.0,61,36,13,29.71,29.46,24,7,35,0.00
2013-6-19,98.0,82.2,63.3,50.0,19.3,-99.9,43,19,1,29.56,29.34,15,3,24,0.00
2013-6-20,97.7,80.0,59.6,30.0,-3.1,-99.9,23,8,1,29.59,29.39,11,2,20,0.00
2013-6-21,95.7,79.8,61.7,46.0,10.4,-99.9,45,13,1,29.63,29.43,15,3,25,0.00
2013-6-22,94.2,79.2,59.6,26.0,9.2,-8.0,25,8,2,29.62,29.42,13,2,23,0.00
2013-6-23,93.8,79.0,60.2,19.0,8.5,-1.0,19,8,3,29.61,29.40,11,3,21,0.00
2013-6-24,95.4,79.7,63.1,28.0,10.8,-22.0,25,9,1,29.59,29.42,18,2,20,0.00
2013-6-25,95.8,80.0,60.7,25.0,17.1,7.0,23,10,4,29.66,29.52,10,2,17,0.00
2013-6-26,100.7,82.6,61.6,30.0,22.4,15.0,26,12,5,29.72,29.54,9,1,11,0.00
2013-6-27,106.6,86.2,65.5,33.0,25.7,10.0,29,13,3,29.71,29.55,8,2,23,0.00
2013-6-28,97.3,85.4,74.6,49.0,41.7,29.0,40,23,12,29.73,29.58,22,6,39,0.00
2013-6-29,98.7,82.2,66.6,49.0,43.0,32.0,52,28,10,29.73,29.54,17,2,26,0.00
2013-6-30,98.1,80.1,69.2,53.0,46.1,35.0,53,32,11,29.74,29.47,18,4,39,0.01
2013-7-1,89.8,72.5,62.6,54.0,50.7,46.0,70,49,23,29.84,29.66,22,6,27,0.02
2013-7-2,89.9,73.1,62.7,54.0,47.2,42.0,60,42,19,29.89,29.64,18,2,26,0.00
2013-7-3,88.3,70.4,55.9,58.0,53.1,44.0,88,59,24,29.83,29.55,10,1,23,0.67
2013-7-4,92.8,76.7,61.9,57.0,52.1,44.0,80,47,20,29.66,29.49,12,2,24,0.47
2013-7-5,94.9,76.2,66.8,64.0,55.9,47.0,84,53,22,29.61,29.39,14,1,26,0.40
2013-7-6,94.7,75.0,64.4,63.0,56.2,45.0,90,58,18,29.65,29.47,9,2,20,0.07
2013-7-7,94.7,79.4,65.3,60.0,54.6,45.0,80,48,18,29.65,29.50,9,2,15,0.02
2013-7-8,95.8,79.3,67.7,61.0,54.5,51.0,78,45,22,29.77,29.58,17,2,19,0.03
2013-7-9,96.1,78.9,67.1,62.0,56.4,50.0,79,50,23,29.78,29.63,20,1,26,0.00
2013-7-10,96.6,83.4,70.6,57.0,52.5,48.0,63,36,19,29.73,29.55,10,1,17,0.00
2013-7-11,89.8,77.7,68.1,61.0,56.2,52.0,75,50,29,29.74,29.55,9,2,19,0.00
2013-7-12,91.6,79.0,67.3,60.0,55.2,49.0,70,47,23,29.69,29.52,7,2,20,0.00
2013-7-13,94.8,79.5,65.3,62.0,55.6,46.0,84,49,19,29.70,29.56,12,1,22,0.67
2013-7-14,98.0,79.1,66.6,62.0,55.0,48.0,85,47,19,29.70,29.44,17,2,36,0.09
2013-7-15,73.8,68.3,65.7,62.0,55.6,49.0,86,65,47,29.84,29.62,15,3,26,0.01
2013-7-16,82.0,69.6,60.2,52.0,48.8,45.0,72,49,28,29.92,29.77,19,2,28,0.00
2013-7-17,80.9,69.7,59.5,55.0,51.7,47.0,85,55,32,29.99,29.85,9,3,18,0.14
2013-7-18,84.5,73.2,61.1,54.0,53.0,51.0,74,51,34,29.93,29.70,11,2,18,0.00
2013-7-19,88.5,72.2,62.1,64.0,58.7,54.0,89,65,34,29.77,29.59,22,1,32,0.44
2013-7-20,88.2,75.4,66.2,63.0,58.1,53.0,80,57,32,29.70,29.53,13,1,17,0.01
2013-7-21,91.0,77.3,66.8,60.0,55.4,48.0,77,50,26,29.65,29.51,9,1,19,0.00
2013-7-22,95.0,79.7,66.3,58.0,52.3,45.0,73,43,19,29.65,29.50,5,0,14,0.00
2013-7-23,97.1,80.9,65.9,55.0,50.8,42.0,66,38,18,29.63,29.46,9,1,13,0.00
2013-7-24,91.9,76.3,67.3,58.0,52.6,49.0,70,45,27,29.77,29.56,14,2,26,0.00
2013-7-25,85.8,74.0,64.4,59.0,57.7,55.0,81,59,36,29.83,29.69,7,1,15,0.00
2013-7-26,88.8,75.7,62.7,63.0,59.5,54.0,93,62,34,29.86,29.72,10,1,28,0.30
2013-7-28,87.3,78.8,69.1,60.0,55.5,50.0,69,47,29,29.66,29.52,5,1,26,0.01
2013-7-29,90.6,77.3,62.7,62.0,53.4,44.0,90,50,20,29.74,29.63,6,1,16,0.03
2013-7-30,94.7,79.9,62.9,52.0,48.2,42.0,63,36,17,29.85,29.70,5,0,12,0.00
2013-7-31,96.0,82.3,68.1,53.0,49.1,40.0,58,34,15,29.82,29.65,8,1,15,0.00
2013-8-1,86.6,75.9,67.9,62.0,55.6,52.0,81,51,32,29.79,29.66,13,2,19,0.04
2013-8-2,92.3,75.7,64.5,62.0,58.3,53.0,89,59,28,29.75,29.60,14,2,25,0.02
2013-8-3,92.2,76.6,61.3,61.0,55.3,49.0,88,53,24,29.78,29.64,5,0,11,0.00
2013-8-4,94.0,79.9,67.2,60.0,54.5,46.0,75,45,22,29.73,29.57,13,2,26,0.00
2013-8-5,90.9,76.2,63.6,61.0,56.6,51.0,83,54,29,29.75,29.59,14,0,21,0.01
2013-8-6,88.8,75.0,66.0,56.0,50.8,-99.9,62,45,26,29.68,29.58,9,-9,18,0.00
2013-8-7,83.8,72.5,61.3,56.0,53.1,50.0,73,52,32,29.71,29.62,18,2,22,0.00
2013-8-8,86.9,74.1,63.2,56.0,49.9,39.0,76,47,20,29.72,29.61,11,2,22,0.00
2013-8-9,89.7,76.0,65.8,50.0,46.4,39.0,58,37,17,29.80,29.68,14,2,16,0.00
2013-8-10,85.6,71.8,63.4,53.0,50.9,49.0,65,49,30,29.91,29.76,9,1,18,0.00
2013-8-11,74.5,71.9,69.8,54.0,53.7,52.0,58,53,49,29.81,29.79,3,0,6,0.07
2013-8-12,85.0,72.4,64.0,59.0,55.1,50.0,77,56,34,29.86,29.72,14,2,22,0.00
2013-8-13,88.0,79.1,64.4,55.0,49.0,41.0,61,37,21,29.84,29.69,11,1,21,0.00
2013-8-14,90.2,76.3,64.6,57.0,52.0,43.0,72,46,22,29.79,29.65,17,3,24,0.00
2013-8-15,93.2,76.8,63.3,55.0,48.9,35.0,68,41,13,29.80,29.66,7,1,15,0.00
2013-8-16,96.0,80.0,64.7,53.0,44.3,31.0,56,33,10,29.80,29.64,4,1,10,0.00
2013-8-17,96.0,82.5,71.3,54.0,45.1,37.0,47,29,13,29.75,29.56,8,1,14,0.00
2013-8-18,94.0,80.6,67.2,53.0,48.1,42.0,57,35,17,29.74,29.58,14,1,17,0.00
2013-8-19,95.0,78.8,66.4,57.0,49.8,44.0,66,39,18,29.72,29.55,13,2,25,0.04
2013-8-20,92.3,74.7,61.5,62.0,55.6,49.0,81,55,24,29.75,29.60,6,1,16,0.05
2013-8-21,88.2,76.7,63.4,58.0,52.7,47.0,75,46,26,29.75,29.62,8,1,17,0.00
2013-8-22,92.0,79.3,63.6,52.0,46.6,38.0,59,33,21,29.78,29.60,10,1,13,0.00
2013-8-23,86.5,76.2,61.8,50.0,44.3,34.0,47,33,22,29.74,29.59,6,1,16,0.00
2013-8-24,85.9,75.7,68.4,57.0,51.9,45.0,59,44,29,29.77,29.64,11,1,17,0.00
2013-8-25,84.0,73.4,67.3,65.0,57.8,54.0,85,60,37,29.84,29.74,9,1,14,0.20
2013-8-26,89.6,76.0,62.0,62.0,55.7,47.0,87,53,30,29.89,29.72,7,1,17,0.01
2013-8-27,90.2,76.9,63.1,55.0,50.6,45.0,66,42,25,29.78,29.61,6,0,14,0.00
2013-8-28,87.9,75.7,62.7,56.0,51.9,48.0,68,45,29,29.80,29.67,16,2,18,0.00
2013-8-29,85.6,75.7,68.5,58.0,54.2,51.0,61,48,31,29.84,29.74,19,2,22,0.00
2013-8-30,93.0,78.7,64.7,60.0,54.1,43.0,79,47,18,29.82,29.64,9,1,13,0.00
2013-8-31,95.9,80.5,66.2,57.0,50.7,41.0,67,39,18,29.70,29.52,3,0,11,0.00
2013-9-1,94.7,78.4,66.5,59.0,50.7,46.0,72,40,22,29.75,29.53,16,2,32,0.02
2013-9-2,89.6,77.6,68.0,56.0,53.4,49.0,66,45,26,29.79,29.64,9,1,16,0.00
2013-9-3,92.8,78.3,65.9,58.0,53.5,48.0,69,45,23,29.78,29.61,10,1,25,0.01
2013-9-4,91.5,78.7,64.5,52.0,44.6,32.0,56,32,14,29.84,29.69,8,1,11,0.00
2013-9-5,90.6,77.8,61.7,45.0,39.0,33.0,47,27,15,29.86,29.72,11,1,14,0.00
2013-9-6,90.6,76.5,60.3,45.0,39.9,34.0,46,29,16,29.85,29.65,7,1,15,0.00
2013-9-7,91.2,76.1,62.9,56.0,49.3,44.0,60,40,23,29.77,29.61,15,0,15,0.02
2013-9-8,90.3,75.0,60.8,54.0,47.9,44.0,59,40,23,29.72,29.51,9,1,13,0.00
2013-9-9,88.5,75.3,61.5,54.0,49.4,42.0,66,42,23,29.62,29.45,10,1,19,0.00
2013-9-10,72.6,65.4,61.5,62.0,57.2,51.0,93,76,56,29.79,29.59,9,0,14,0.76
2013-9-11,82.9,69.3,61.5,62.0,58.4,50.0,95,72,35,29.84,29.72,11,1,22,0.02
2013-9-12,70.8,65.3,61.9,64.0,59.1,55.0,93,80,67,29.81,29.71,7,1,12,0.80
2013-9-13,72.9,64.7,60.8,61.0,58.6,56.0,94,82,57,29.82,29.69,8,1,12,0.20
2013-9-14,75.2,64.8,57.4,60.0,57.2,55.0,93,78,54,29.77,29.65,17,1,19,0.83
2013-9-15,80.0,66.3,57.0,59.0,55.0,50.0,94,70,37,29.84,29.73,9,1,17,0.24
2013-9-16,79.9,68.1,56.5,57.0,54.0,52.0,91,63,38,29.91,29.77,4,0,11,0.00
2013-9-17,81.9,69.8,58.0,59.0,55.7,53.0,89,63,38,29.82,29.61,13,1,16,0.00
2013-9-18,83.1,71.8,63.8,59.0,56.3,49.0,81,60,32,29.67,29.53,9,1,19,0.00
2013-9-19,84.4,71.1,59.9,61.0,53.6,44.0,94,59,27,29.67,29.57,3,0,8,0.10
2013-9-20,82.8,69.9,60.8,54.0,51.0,42.0,69,52,34,29.77,29.65,19,3,32,0.00
2013-9-21,81.6,67.9,56.3,57.0,52.4,49.0,82,60,34,29.79,29.59,8,1,13,0.00
2013-9-22,79.5,65.8,57.5,56.0,50.9,37.0,89,62,31,29.63,29.32,23,5,33,0.71
2013-9-23,72.2,60.9,46.4,40.0,34.6,29.0,74,40,21,29.86,29.52,16,2,21,0.00
2013-9-24,76.6,61.8,46.0,46.0,41.8,38.0,83,51,26,29.97,29.75,5,0,9,0.00
2013-9-25,82.7,66.8,49.9,44.0,41.7,37.0,73,44,23,29.75,29.44,22,3,26,0.00
2013-9-26,81.6,67.0,52.0,44.0,40.5,35.0,72,42,20,29.56,29.43,17,3,25,0.00
2013-9-27,71.5,60.7,49.9,50.0,41.1,32.0,57,49,41,29.82,29.48,16,4,25,0.00
2013-9-28,70.4,53.4,37.4,32.0,26.1,16.0,73,40,13,30.07,29.82,6,0,13,0.00
2013-9-29,77.4,57.7,38.6,35.0,27.9,22.0,70,37,13,30.08,29.85,10,0,11,0.00
2013-9-30,83.0,63.2,45.2,34.0,30.8,26.0,61,34,13,29.87,29.65,4,0,9,0.00
2013-10-1,84.4,64.9,47.3,35.0,29.1,19.0,57,31,9,29.79,29.66,2,0,11,0.00
2013-10-2,80.7,63.6,45.5,35.0,29.3,18.0,55,31,11,29.81,29.64,4,0,12,0.00
2013-10-3,78.4,63.4,48.1,37.0,32.3,23.0,59,34,14,29.70,29.48,14,1,17,0.00
2013-10-4,62.9,55.9,48.7,35.0,20.1,5.0,50,27,13,29.95,29.57,15,5,23,0.00
2013-10-5,61.3,50.4,39.1,23.0,18.2,13.0,51,30,15,30.14,29.95,12,4,19,0.00
2013-10-6,71.1,51.8,33.5,27.0,22.2,18.0,63,35,13,30.23,30.07,6,0,9,0.00
2013-10-7,75.4,56.5,37.9,28.0,24.5,18.0,62,33,12,30.14,29.89,7,0,11,0.00
2013-10-8,78.5,61.8,47.1,33.0,29.0,26.0,52,31,15,29.89,29.60,9,1,16,0.00
2013-10-9,75.6,61.4,44.7,37.0,32.1,27.0,64,36,17,29.71,29.57,14,2,20,0.00
2013-10-10,70.3,57.6,44.1,48.0,35.1,26.0,75,44,25,29.76,29.45,23,7,48,0.06
2013-10-11,62.4,48.9,34.0,33.0,30.3,29.0,84,52,29,29.94,29.77,7,1,14,0.00
2013-10-12,72.1,53.9,37.6,35.0,33.2,30.0,80,50,23,30.04,29.87,13,1,21,0.00
2013-10-13,77.3,64.4,53.2,43.0,37.3,33.0,50,38,20,29.93,29.66,18,4,26,0.00
2013-10-14,68.5,58.6,47.0,42.0,29.4,16.0,75,37,15,29.83,29.69,14,2,20,0.00
2013-10-15,66.3,51.8,39.1,32.0,27.0,21.0,53,40,27,29.92,29.75,24,5,33,0.00
2013-10-16,61.0,50.6,42.7,34.0,27.3,12.0,67,44,19,29.98,29.84,17,4,28,0.00
2013-10-17,65.2,48.1,31.5,24.0,19.7,16.0,65,35,16,30.05,29.83,9,0,9,0.00
2013-10-18,62.4,48.9,33.6,25.0,18.4,11.0,63,34,14,30.04,29.84,15,3,21,0.00
2013-10-19,65.7,47.4,30.2,28.0,22.7,16.0,83,44,15,30.12,29.92,3,0,8,0.00
2013-10-20,70.8,53.1,33.5,21.0,17.2,9.0,55,28,10,29.97,29.72,9,1,17,0.00
2013-10-21,64.4,53.0,44.7,31.0,27.6,17.0,55,39,22,30.02,29.82,16,3,24,0.00
2013-10-22,70.9,50.6,34.4,30.0,23.7,13.0,74,40,11,30.16,30.01,3,0,6,0.00
2013-10-23,72.1,53.7,36.8,29.0,24.4,19.0,57,34,18,30.09,29.91,4,0,7,0.00
2013-10-24,75.4,58.7,41.3,48.0,31.1,23.0,81,40,18,30.04,29.87,7,1,23,0.05
2013-10-25,66.3,53.1,45.0,48.0,43.8,38.0,91,72,46,30.04,29.88,16,2,23,0.07
2013-10-26,68.1,52.1,38.5,42.0,37.8,33.0,89,62,32,30.17,30.02,7,0,8,0.00
2013-10-27,69.6,54.2,38.8,38.0,35.3,31.0,81,52,25,30.08,29.73,4,0,12,0.00
2013-10-28,69.8,57.0,45.1,42.0,31.6,18.0,78,44,18,29.76,29.64,7,1,16,0.00
2013-10-29,67.9,57.0,45.9,27.0,24.7,21.0,44,30,18,29.81,29.60,26,4,28,0.00
2013-10-30,60.6,50.6,40.5,36.0,30.4,24.0,68,47,34,29.82,29.59,19,2,33,0.00
2013-10-31,55.3,44.2,30.4,29.0,25.4,22.0,79,51,29,30.02,29.82,18,4,22,0.00
2013-11-1,60.4,48.3,35.6,28.0,25.2,21.0,69,43,22,30.14,29.98,16,2,20,0.00
2013-11-2,63.4,47.9,32.9,27.0,24.1,20.0,70,42,20,30.23,29.93,8,1,11,0.00
2013-11-3,66.9,54.8,43.4,34.0,28.7,22.0,51,38,23,29.93,29.58,10,1,18,0.00
2013-11-4,66.8,53.8,37.9,44.0,35.0,31.0,78,51,30,29.76,29.59,8,2,21,0.00
2013-11-5,54.5,45.3,34.6,43.0,31.8,15.0,90,62,39,30.15,29.60,13,3,19,0.23
2013-11-6,53.7,40.2,26.2,21.0,15.1,10.0,67,39,19,30.40,30.16,7,1,14,0.00
2013-11-7,60.6,43.3,29.4,26.0,21.5,16.0,70,45,21,30.44,30.20,4,0,7,0.00
2013-11-8,63.1,46.2,30.5,27.0,23.2,19.0,77,44,21,30.21,29.95,5,0,7,0.00
2013-11-9,68.6,48.9,32.1,28.0,24.6,20.0,77,44,17,30.12,30.01,2,0,6,0.00
2013-11-10,68.1,49.6,35.3,29.0,25.2,21.0,66,42,18,30.20,30.06,3,0,5,0.00
2013-11-11,67.8,50.6,36.4,28.0,24.0,19.0,67,39,16,30.23,30.08,9,1,18,0.00
2013-11-12,55.8,46.9,38.7,34.0,32.2,23.0,77,58,30,30.42,30.22,18,8,31,0.00
2013-11-13,55.9,43.0,29.7,38.0,33.9,27.0,90,72,50,30.43,30.07,6,0,10,0.00
2013-11-14,61.1,45.9,37.0,41.0,34.7,29.0,93,68,36,30.07,29.84,2,0,7,0.00
2013-11-15,60.7,45.8,33.2,45.0,34.2,27.0,91,66,37,29.84,29.58,24,4,29,0.21
2013-11-16,60.6,50.0,41.1,44.0,37.6,29.0,92,66,40,29.71,29.49,9,1,12,0.01
2013-11-17,57.9,48.4,37.2,33.0,31.0,29.0,77,53,37,30.04,29.70,24,3,28,0.00
2013-11-18,56.8,43.1,34.4,34.0,30.1,28.0,82,62,35,30.16,30.03,5,0,8,0.00
2013-11-19,63.9,45.8,30.8,36.0,31.9,27.0,88,62,31,30.07,29.78,5,0,6,0.00
2013-11-20,48.6,43.5,39.2,42.0,36.8,29.0,93,78,58,29.85,29.76,5,0,10,0.23
2013-11-21,56.3,46.9,40.0,45.0,42.2,36.0,94,84,61,29.98,29.84,20,1,26,0.23
2013-11-22,39.3,32.5,28.5,35.0,24.5,21.0,85,72,69,30.38,29.96,28,14,38,0.02
2013-11-23,34.9,31.5,26.0,26.0,22.2,18.0,82,69,61,30.47,30.30,34,11,44,0.00
2013-11-24,32.8,28.1,21.8,24.0,19.3,15.0,85,70,57,30.40,30.18,17,4,26,0.00
2013-11-25,45.6,33.9,26.8,29.0,26.8,24.0,91,77,52,30.35,30.13,8,1,13,0.02
2013-11-26,48.3,35.1,23.9,29.0,25.9,21.0,88,71,46,30.46,30.35,4,0,8,0.01
2013-11-27,45.8,34.4,24.0,29.0,25.8,21.0,91,72,49,30.40,30.19,4,0,8,0.00
2013-11-28,50.5,35.8,25.1,27.0,24.4,22.0,90,66,37,30.29,30.17,5,0,9,0.00
2013-11-29,55.1,38.6,26.5,30.0,26.7,22.0,87,65,37,30.36,30.22,3,0,6,0.00
2013-11-30,56.0,40.4,28.7,32.0,29.3,26.0,89,67,39,30.30,30.14,3,0,7,0.00
2013-12-1,49.9,39.2,33.4,32.0,29.2,26.0,81,68,49,30.25,30.16,13,3,16,0.00
2013-12-2,51.3,39.1,29.8,29.0,26.3,24.0,80,62,41,30.18,29.83,6,1,11,0.00
2013-12-3,64.1,47.9,31.7,27.0,20.0,12.0,76,38,13,29.83,29.51,11,2,15,0.00
2013-12-4,59.6,47.4,37.1,30.0,22.8,14.0,66,41,23,29.71,29.40,19,6,32,0.00
2013-12-5,38.1,27.5,15.3,31.0,23.2,11.0,92,84,53,30.04,29.68,7,1,10,0.03
2013-12-6,34.5,22.8,9.7,21.0,14.6,7.0,91,73,42,30.31,30.05,7,0,9,0.10
2013-12-7,33.4,26.0,16.6,29.0,20.5,11.0,89,80,66,30.22,29.91,10,1,18,0.00
2013-12-8,34.5,29.5,25.3,25.0,17.2,10.0,84,61,48,30.03,29.85,15,4,23,0.01
2013-12-9,30.2,24.8,12.1,16.0,8.5,0.0,69,51,30,30.56,30.03,19,5,25,0.00
2013-12-10,34.4,20.8,11.0,11.0,4.2,0.0,69,51,27,30.61,30.42,8,1,14,0.00
2013-12-11,42.0,26.9,15.0,18.0,11.5,5.0,71,54,29,30.63,30.45,5,0,12,0.00
2013-12-12,41.3,29.8,20.5,22.0,17.5,12.0,76,61,40,30.58,30.18,4,0,8,0.00
2013-12-13,47.0,36.4,30.8,32.0,26.1,19.0,91,68,52,30.17,29.96,13,3,18,0.01
2013-12-14,46.1,35.4,24.4,20.0,18.5,16.0,77,52,33,30.41,30.11,14,2,16,0.00
2013-12-15,47.5,34.8,21.6,20.0,17.9,15.0,77,53,31,30.43,30.29,12,2,15,0.00
2013-12-16,55.5,40.2,24.5,23.0,20.6,18.0,77,48,27,30.41,30.27,7,1,13,0.00
2013-12-17,55.8,39.8,26.4,23.0,21.2,19.0,76,51,26,30.40,30.25,7,1,11,0.00
2013-12-18,54.4,37.7,26.7,27.0,22.8,20.0,79,58,29,30.25,29.90,3,0,4,0.00
2013-12-19,57.3,42.8,29.8,26.0,22.6,17.0,73,47,27,29.89,29.62,7,1,10,0.00
2013-12-20,53.4,40.1,29.0,32.0,23.9,18.0,80,55,27,29.72,29.55,7,1,14,0.00
2013-12-21,41.4,36.5,32.5,33.0,27.9,24.0,93,72,54,29.80,29.47,14,4,21,0.31
2013-12-22,42.3,33.7,27.4,25.0,21.0,17.0,72,61,45,30.30,29.81,8,1,15,0.00
2013-12-23,46.1,34.6,25.6,21.0,18.8,16.0,69,54,36,30.51,30.30,11,1,13,0.00
2013-12-24,49.9,36.5,23.4,24.0,21.0,17.0,78,56,33,30.42,30.17,8,1,16,0.00
2013-12-25,45.9,34.5,25.2,23.0,17.2,11.0,73,52,28,30.42,30.28,6,1,10,0.00
2013-12-26,49.1,32.1,19.2,19.0,15.1,11.0,77,53,27,30.46,30.28,5,0,9,0.00
2013-12-27,52.3,35.4,26.1,19.0,15.8,13.0,65,47,24,30.40,30.23,6,1,10,0.00
2013-12-28,48.9,33.9,21.8,20.0,17.0,15.0,79,53,26,30.23,29.94,5,0,7,0.00
2013-12-29,44.4,37.1,25.7,27.0,22.0,18.0,78,55,44,30.18,29.96,12,2,17,0.00
2013-12-30,50.1,35.0,21.9,20.0,13.8,7.0,79,46,19,30.36,30.17,9,1,16,0.00
2013-12-31,51.2,34.4,21.5,18.0,15.6,14.0,76,50,24,30.37,30.16,7,0,7,0.00
2014-1-1,53.8,39.2,25.5,21.0,17.2,14.0,68,44,21,30.27,30.09,17,2,28,0.00
2014-1-2,51.2,34.4,20.4,22.0,15.4,10.0,81,50,19,30.37,30.24,4,0,6,0.00